This demonstration page uses our WeatherBlox Daily Observations layout. Learn more.

Left ArrowRight Arrow

39.12711, -84.51439

Hourly Observations for August 30, 2018

Temp ( °F °C ) Dew Point ( °F °C ) Humidity (%) Winds ( mph kmh ) Pressure ( in mb ) Visibility ( mi km ) Precip ( " mm )
12:01 am 00:01 Mostly Cloudy with Fog 71 21.7 71 21.7 100 100 N N/A 30.06 1018 0 0 N/A
12:09 am 00:09 Mostly Cloudy with Mist and Fog 71 21.7 71 21.7 100 100 N N/A 30.09 1019 1 1 N/A
12:39 am 00:39 Mostly Cloudy with Fog 71 21.7 71 21.7 100 100 N N/A 30.09 1019 1 1 N/A
12:53 am 00:53 Mostly Clear with Mist and Fog 71 21.7 71 21.7 100 100 N N/A 30.10 1019 1 1 N/A
1:01 am 01:01 Mostly Clear with Mist and Fog 71 21.7 71 21.7 100 100 N N/A 30.09 1019 2 3 N/A
1:08 am 01:08 Clear with Mist and Fog 71 21.7 71 21.7 100 100 N N/A 30.09 1019 3 5 N/A
1:53 am 01:53 Clear with Mist and Fog 72 22.2 72 22.2 100 100 N N/A 30.09 1019 5 8 N/A
2:46 am 02:46 Mostly Clear with Mist and Fog 72 22.2 72 22.2 100 100 N N/A 30.06 1018 1 2 N/A
2:53 am 02:53 Mostly Cloudy with Mist and Fog 71 21.7 71 21.7 100 100 N N/A 30.08 1019 1 2 N/A
3:02 am 03:02 Mostly Cloudy with Fog 71 21.7 71 21.7 100 100 N N/A 30.06 1018 0 0 N/A
3:11 am 03:11 Mostly Cloudy with Fog 71 21.7 71 21.7 100 100 N N/A 30.06 1018 1 1 N/A
3:22 am 03:22 Clear with Mist and Fog 71 21.7 71 21.7 100 100 N N/A 30.06 1018 1 1 N/A
3:39 am 03:39 Mostly Clear with Fog 70 21.1 70 21.1 100 100 N N/A 30.06 1018 1 1 N/A
3:51 am 03:51 Mostly Cloudy with Fog 72 22 72 22 100 100 N N/A 30.06 1018 0 0 N/A
3:53 am 03:53 Mostly Cloudy with Fog 70 21.1 70 21.1 100 100 N N/A 30.08 1019 1 1 N/A
4:01 am 04:01 Mostly Cloudy with Mist and Fog 70 21.1 70 21.1 100 100 N N/A 30.06 1018 3 4 N/A
4:08 am 04:08 Mostly Cloudy with Mist and Fog 71 21.7 71 21.7 100 100 N N/A 30.06 1018 4 6 N/A
4:53 am 04:53 Mostly Clear 72 22.2 71 21.7 97 97 N N/A 30.09 1019 10 16 N/A
5:06 am 05:06 Mostly Cloudy 73 22.8 71 21.7 94 94 N N/A 30.09 1019 10 16 N/A
5:32 am 05:32 Cloudy 72 22.2 71 21.7 97 97 N N/A 30.09 1019 10 16 N/A
5:53 am 05:53 Mostly Cloudy 72 22.2 71 21.7 97 97 WNW 3 6 30.11 1020 10 16 N/A
6:53 am 06:53 Partly Cloudy 70 21.1 70 21.1 100 100 N N/A 30.11 1020 10 16 N/A
7:53 am 07:53 Mostly Cloudy 73 22.8 71 21.7 94 94 NNE 5 7 30.14 1021 10 16 N/A
8:53 am 08:53 Mostly Cloudy 73 22.8 70 21.1 90 90 N 5 7 30.14 1021 10 16 N/A
9:53 am 09:53 Cloudy 74 23.3 71 21.7 91 91 N 3 6 30.15 1021 10 16 N/A
10:53 am 10:53 Cloudy 74 23.3 70 21.1 88 88 N 7 11 30.15 1021 10 16 N/A
11:06 am 11:06 Cloudy 74 23.3 70 21.1 88 88 N 6 9 30.15 1021 10 16 N/A
11:53 am 11:53 Cloudy 75 23.9 70 21.1 84 84 VRB 5 7 30.16 1021 10 16 N/A
12:53 pm 12:53 Cloudy 75 23.9 70 21.1 84 84 E 3 6 30.15 1021 10 16 N/A
1:53 pm 13:53 Mostly Cloudy 78 25.6 70 21.1 76 76 NE 5 7 30.14 1021 10 16 N/A
2:53 pm 14:53 Cloudy 78 25.6 71 21.7 79 79 ENE 5 7 30.11 1020 10 16 N/A
3:53 pm 15:53 Mostly Cloudy 81 27.2 71 21.7 72 72 N N/A 30.10 1019 10 16 N/A
4:53 pm 16:53 Partly Cloudy 82 27.8 72 22.2 72 72 E 6 9 30.09 1019 10 16 N/A
5:53 pm 17:53 Partly Cloudy 83 28.3 71 21.7 67 67 NE 3 6 30.08 1019 10 16 N/A
6:53 pm 18:53 Partly Cloudy 82 27.8 70 21.1 67 67 N N/A 30.08 1019 10 16 N/A
7:53 pm 19:53 Sunny 77 25 72 22.2 85 85 N N/A 30.09 1019 10 16 N/A
8:53 pm 20:53 Clear 72 22.2 71 21.7 97 97 N N/A 30.10 1019 10 16 N/A
9:53 pm 21:53 Clear 70 21.1 70 21.1 100 100 ENE 3 6 30.11 1020 7 11 N/A
10:53 pm 22:53 Clear with Mist and Fog 70 21.1 70 21.1 100 100 N N/A 30.11 1020 5 8 N/A
11:53 pm 23:53 Clear with Mist and Fog 69 20.6 69 20.6 100 100 N N/A 30.12 1020 3 5 N/A

Powered by AerisWeather